owner,sensor,date,latitude,longitude,vertical_datum,mass_concentration_of_oxygen_in_sea_water,qcFlag 
DISL,ioos:station:DISL:BSCA:1,2019-04-10T19:30:00Z,30.3288,-87.8293,2.02,5.57,1111122 
DISL,ioos:station:DISL:BSCA:1,2019-04-10T21:30:00Z,30.3288,-87.8293,1.962,5.99,1111122 
DISL,ioos:station:DISL:BSCA:1,2019-04-10T22:30:00Z,30.3288,-87.8293,1.911,5.17,1111122 
DISL,ioos:station:DISL:BSCA:1,2019-04-10T23:30:00Z,30.3288,-87.8293,1.85,4.76,1111122 
DISL,ioos:station:DISL:BSCA:1,2019-04-11T00:30:00Z,30.3288,-87.8293,1.788,4.08,1111122 
DISL,ioos:station:DISL:BSCA:1,2019-04-11T01:30:00Z,30.3288,-87.8293,1.734,4.25,1111122 
DISL,ioos:station:DISL:BSCA:1,2019-04-11T02:30:00Z,30.3288,-87.8293,1.668,5.05,1111122 
DISL,ioos:station:DISL:BSCA:1,2019-04-11T03:30:00Z,30.3288,-87.8293,1.601,4.74,1111122 
DISL,ioos:station:DISL:BSCA:1,2019-04-11T04:30:00Z,30.3288,-87.8293,1.546,4.41,1111122 
DISL,ioos:station:DISL:BSCA:1,2019-04-11T05:30:00Z,30.3288,-87.8293,1.502,4.49,1111122 
DISL,ioos:station:DISL:BSCA:1,2019-04-11T06:30:00Z,30.3288,-87.8293,1.482,4.14,1111122 
DISL,ioos:station:DISL:BSCA:1,2019-04-11T07:30:00Z,30.3288,-87.8293,1.476,3.81,1111122 
DISL,ioos:station:DISL:BSCA:1,2019-04-11T08:30:00Z,30.3288,-87.8293,1.502,2.29,1111122 
DISL,ioos:station:DISL:BSCA:1,2019-04-11T09:30:00Z,30.3288,-87.8293,1.551,5.7,1111122 
DISL,ioos:station:DISL:BSCA:1,2019-04-11T10:30:00Z,30.3288,-87.8293,1.614,4.95,1111122 
DISL,ioos:station:DISL:BSCA:1,2019-04-11T11:30:00Z,30.3288,-87.8293,1.671,5.27,1111122 
DISL,ioos:station:DISL:BSCA:1,2019-04-11T12:30:00Z,30.3288,-87.8293,1.728,3.44,1111122 
DISL,ioos:station:DISL:BSCA:1,2019-04-11T13:30:00Z,30.3288,-87.8293,1.794,3.88,1111122 
DISL,ioos:station:DISL:BSCA:1,2019-04-11T14:30:00Z,30.3288,-87.8293,1.847,6.44,1111122 
DISL,ioos:station:DISL:BSCA:1,2019-04-11T15:30:00Z,30.3288,-87.8293,1.915,7.41,1111122 
DISL,ioos:station:DISL:BSCA:1,2019-04-11T16:30:00Z,30.3288,-87.8293,1.943,7.58,1111122 
DISL,ioos:station:DISL:BSCA:1,2019-04-11T17:30:00Z,30.3288,-87.8293,1.974,7.65,1111122 
DISL,ioos:station:DISL:BSCA:1,2019-04-11T18:30:00Z,30.3288,-87.8293,2.039,7.3,1111122 
DISL,ioos:station:DISL:BSCA:1,2019-04-11T19:30:00Z,30.3288,-87.8293,2.077,7.8,1111122 
DISL,ioos:station:DISL:BSCA:1,2019-04-11T20:30:00Z,30.3288,-87.8293,2.085,7.54,1111122 
DISL,ioos:station:DISL:BSCA:1,2019-04-11T21:30:00Z,30.3288,-87.8293,2.054,7.22,1111122 
DISL,ioos:station:DISL:BSCA:1,2019-04-11T22:30:00Z,30.3288,-87.8293,1.99,7.71,1111122 
DISL,ioos:station:DISL:BSCA:1,2019-04-11T23:30:00Z,30.3288,-87.8293,1.906,7.52,1111122 
DISL,ioos:station:DISL:BSCA:1,2019-04-12T00:30:00Z,30.3288,-87.8293,1.828,7.27,1111122 
DISL,ioos:station:DISL:BSCA:1,2019-04-12T01:30:00Z,30.3288,-87.8293,1.766,7.21,1111122 
DISL,ioos:station:DISL:BSCA:1,2019-04-12T02:30:00Z,30.3288,-87.8293,1.718,6.84,1111122 
DISL,ioos:station:DISL:BSCA:1,2019-04-12T03:30:00Z,30.3288,-87.8293,1.643,7.16,1111122 
DISL,ioos:station:DISL:BSCA:1,2019-04-12T04:30:00Z,30.3288,-87.8293,1.602,6.64,1111122 
DISL,ioos:station:DISL:BSCA:1,2019-04-12T05:30:00Z,30.3288,-87.8293,1.58,6.5,1111122 
DISL,ioos:station:DISL:BSCA:1,2019-04-12T06:30:00Z,30.3288,-87.8293,1.549,6.86,1111122 
DISL,ioos:station:DISL:BSCA:1,2019-04-12T07:30:00Z,30.3288,-87.8293,1.532,6.29,1111122 
DISL,ioos:station:DISL:BSCA:1,2019-04-12T08:30:00Z,30.3288,-87.8293,1.544,5.74,1111122 
DISL,ioos:station:DISL:BSCA:1,2019-04-12T09:30:00Z,30.3288,-87.8293,1.578,4.59,1111122 
DISL,ioos:station:DISL:BSCA:1,2019-04-12T10:30:00Z,30.3288,-87.8293,1.601,5.06,1111122 
DISL,ioos:station:DISL:BSCA:1,2019-04-12T11:30:00Z,30.3288,-87.8293,1.627,3.7,1111122 
DISL,ioos:station:DISL:BSCA:1,2019-04-12T12:30:00Z,30.3288,-87.8293,1.67,2.94,1111122 
DISL,ioos:station:DISL:BSCA:1,2019-04-12T13:30:00Z,30.3288,-87.8293,1.736,3.59,1111122 
DISL,ioos:station:DISL:BSCA:1,2019-04-12T14:30:00Z,30.3288,-87.8293,1.795,4.41,1111122 
DISL,ioos:station:DISL:BSCA:1,2019-04-12T15:30:00Z,30.3288,-87.8293,1.844,3.73,1111122 
DISL,ioos:station:DISL:BSCA:1,2019-04-12T16:30:00Z,30.3288,-87.8293,1.851,6.02,1111122 
DISL,ioos:station:DISL:BSCA:1,2019-04-12T17:30:00Z,30.3288,-87.8293,1.889,6.12,1111122 
DISL,ioos:station:DISL:BSCA:1,2019-04-12T18:30:00Z,30.3288,-87.8293,1.945,6.49,1111122 
DISL,ioos:station:DISL:BSCA:1,2019-04-12T19:30:00Z,30.3288,-87.8293,1.978,6.39,1111122 
DISL,ioos:station:DISL:BSCA:1,2019-04-12T20:30:00Z,30.3288,-87.8293,2.012,6.72,1111122 
DISL,ioos:station:DISL:BSCA:1,2019-04-12T21:30:00Z,30.3288,-87.8293,2.005,6.54,1111122 
DISL,ioos:station:DISL:BSCA:1,2019-04-12T22:30:00Z,30.3288,-87.8293,1.98,6.7,1111122 
DISL,ioos:station:DISL:BSCA:1,2019-04-12T23:30:00Z,30.3288,-87.8293,1.939,6.84,1111122 
DISL,ioos:station:DISL:BSCA:1,2019-04-13T00:30:00Z,30.3288,-87.8293,1.894,6.89,1111122 
DISL,ioos:station:DISL:BSCA:1,2019-04-13T01:30:00Z,30.3288,-87.8293,1.869,6.97,1111122 
DISL,ioos:station:DISL:BSCA:1,2019-04-13T02:30:00Z,30.3288,-87.8293,1.813,6.75,1111122 
DISL,ioos:station:DISL:BSCA:1,2019-04-13T03:30:00Z,30.3288,-87.8293,1.746,6.92,1111122 
DISL,ioos:station:DISL:BSCA:1,2019-04-13T04:30:00Z,30.3288,-87.8293,1.684,6.88,1111122 
DISL,ioos:station:DISL:BSCA:1,2019-04-13T05:30:00Z,30.3288,-87.8293,1.635,6.93,1111122 
DISL,ioos:station:DISL:BSCA:1,2019-04-13T06:30:00Z,30.3288,-87.8293,1.598,6.7,1111122 
DISL,ioos:station:DISL:BSCA:1,2019-04-13T07:30:00Z,30.3288,-87.8293,1.576,6.02,1111122 
DISL,ioos:station:DISL:BSCA:1,2019-04-13T08:30:00Z,30.3288,-87.8293,1.564,5.67,1111122 
DISL,ioos:station:DISL:BSCA:1,2019-04-13T09:30:00Z,30.3288,-87.8293,1.55,6.34,1111122 
DISL,ioos:station:DISL:BSCA:1,2019-04-13T10:30:00Z,30.3288,-87.8293,1.531,6.19,1111122 
DISL,ioos:station:DISL:BSCA:1,2019-04-13T11:30:00Z,30.3288,-87.8293,1.559,5.9,1111122 
DISL,ioos:station:DISL:BSCA:1,2019-04-13T12:30:00Z,30.3288,-87.8293,1.632,5.9,1111122 
DISL,ioos:station:DISL:BSCA:1,2019-04-13T13:30:00Z,30.3288,-87.8293,1.716,5.54,1111122 
DISL,ioos:station:DISL:BSCA:1,2019-04-13T14:30:00Z,30.3288,-87.8293,1.769,5.85,1111122 
DISL,ioos:station:DISL:BSCA:1,2019-04-13T15:30:00Z,30.3288,-87.8293,1.768,6.46,1111122 
DISL,ioos:station:DISL:BSCA:1,2019-04-13T16:30:00Z,30.3288,-87.8293,1.778,6.95,1111122 
DISL,ioos:station:DISL:BSCA:1,2019-04-13T17:30:00Z,30.3288,-87.8293,1.818,6.99,1111122 
DISL,ioos:station:DISL:BSCA:1,2019-04-13T18:30:00Z,30.3288,-87.8293,1.873,7.14,1111122 
DISL,ioos:station:DISL:BSCA:1,2019-04-13T19:30:00Z,30.3288,-87.8293,1.906,7.2,1111122 
DISL,ioos:station:DISL:BSCA:1,2019-04-13T20:30:00Z,30.3288,-87.8293,1.923,6.97,1111122 
DISL,ioos:station:DISL:BSCA:1,2019-04-13T21:30:00Z,30.3288,-87.8293,1.985,7.46,1111122 
DISL,ioos:station:DISL:BSCA:1,2019-04-13T22:30:00Z,30.3288,-87.8293,1.992,7.55,1111122 
DISL,ioos:station:DISL:BSCA:1,2019-04-13T23:30:00Z,30.3288,-87.8293,1.993,7.37,1111122 
DISL,ioos:station:DISL:BSCA:1,2019-04-14T00:30:00Z,30.3288,-87.8293,2.018,7.32,1111122 
DISL,ioos:station:DISL:BSCA:1,2019-04-14T01:30:00Z,30.3288,-87.8293,2.016,7.27,1111122 
DISL,ioos:station:DISL:BSCA:1,2019-04-14T02:30:00Z,30.3288,-87.8293,1.994,7.19,1111122 
DISL,ioos:station:DISL:BSCA:1,2019-04-14T03:30:00Z,30.3288,-87.8293,1.952,7.05,1111122 
DISL,ioos:station:DISL:BSCA:1,2019-04-14T04:30:00Z,30.3288,-87.8293,1.883,6.73,1111122 
DISL,ioos:station:DISL:BSCA:1,2019-04-14T05:30:00Z,30.3288,-87.8293,1.862,6.56,1111122 
DISL,ioos:station:DISL:BSCA:1,2019-04-14T06:30:00Z,30.3288,-87.8293,1.839,6.73,1111122 
DISL,ioos:station:DISL:BSCA:1,2019-04-14T07:30:00Z,30.3288,-87.8293,1.772,7.05,1111122 
DISL,ioos:station:DISL:BSCA:1,2019-04-14T08:30:00Z,30.3288,-87.8293,1.692,7.03,1111122 
DISL,ioos:station:DISL:BSCA:1,2019-04-14T09:30:00Z,30.3288,-87.8293,1.714,7.1,1111122 
DISL,ioos:station:DISL:BSCA:1,2019-04-14T10:30:00Z,30.3288,-87.8293,1.952,6.93,1111122 
DISL,ioos:station:DISL:BSCA:1,2019-04-14T11:30:00Z,30.3288,-87.8293,2.104,7.02,1111122 
DISL,ioos:station:DISL:BSCA:1,2019-04-14T12:30:00Z,30.3288,-87.8293,2.028,6.98,1111122 
DISL,ioos:station:DISL:BSCA:1,2019-04-14T13:30:00Z,30.3288,-87.8293,1.964,6.51,1111122 
DISL,ioos:station:DISL:BSCA:1,2019-04-14T14:30:00Z,30.3288,-87.8293,1.891,6.88,1111122 
DISL,ioos:station:DISL:BSCA:1,2019-04-14T15:30:00Z,30.3288,-87.8293,1.947,6.28,1111122 
DISL,ioos:station:DISL:BSCA:1,2019-04-14T16:30:00Z,30.3288,-87.8293,2.062,6.19,1111122 
DISL,ioos:station:DISL:BSCA:1,2019-04-14T17:30:00Z,30.3288,-87.8293,2.098,6.82,1111122 
DISL,ioos:station:DISL:BSCA:1,2019-04-14T18:30:00Z,30.3288,-87.8293,2.156,6.94,1111122 
DISL,ioos:station:DISL:BSCA:1,2019-04-14T19:30:00Z,30.3288,-87.8293,2.185,6.95,1111122 
DISL,ioos:station:DISL:BSCA:1,2019-04-14T20:30:00Z,30.3288,-87.8293,2.21,6.9,1111122 
DISL,ioos:station:DISL:BSCA:1,2019-04-14T21:30:00Z,30.3288,-87.8293,2.212,6.81,1111122 
DISL,ioos:station:DISL:BSCA:1,2019-04-14T22:30:00Z,30.3288,-87.8293,2.171,6.7,1111122 
DISL,ioos:station:DISL:BSCA:1,2019-04-14T23:30:00Z,30.3288,-87.8293,2.137,7.05,1111122 
DISL,ioos:station:DISL:BSCA:1,2019-04-15T00:30:00Z,30.3288,-87.8293,2.076,6.86,1111122 
DISL,ioos:station:DISL:BSCA:1,2019-04-15T01:30:00Z,30.3288,-87.8293,2.014,6.91,1111122 
DISL,ioos:station:DISL:BSCA:1,2019-04-15T02:30:00Z,30.3288,-87.8293,1.974,6.78,1111122 
DISL,ioos:station:DISL:BSCA:1,2019-04-15T03:30:00Z,30.3288,-87.8293,1.872,6.96,1111122 
DISL,ioos:station:DISL:BSCA:1,2019-04-15T04:30:00Z,30.3288,-87.8293,1.769,6.7,1111122 
DISL,ioos:station:DISL:BSCA:1,2019-04-15T05:30:00Z,30.3288,-87.8293,1.651,6.31,1111122 
DISL,ioos:station:DISL:BSCA:1,2019-04-15T06:30:00Z,30.3288,-87.8293,1.576,6.32,1111122 
DISL,ioos:station:DISL:BSCA:1,2019-04-15T07:30:00Z,30.3288,-87.8293,1.549,6.44,1111122 
DISL,ioos:station:DISL:BSCA:1,2019-04-15T08:30:00Z,30.3288,-87.8293,1.525,6.71,1111122 
DISL,ioos:station:DISL:BSCA:1,2019-04-15T09:30:00Z,30.3288,-87.8293,1.472,5.95,1111122 
DISL,ioos:station:DISL:BSCA:1,2019-04-15T10:30:00Z,30.3288,-87.8293,1.447,5.17,1111122 
DISL,ioos:station:DISL:BSCA:1,2019-04-15T11:30:00Z,30.3288,-87.8293,1.456,5.6,1111122 
DISL,ioos:station:DISL:BSCA:1,2019-04-15T12:30:00Z,30.3288,-87.8293,1.494,5.04,1111122 
DISL,ioos:station:DISL:BSCA:1,2019-04-15T13:30:00Z,30.3288,-87.8293,1.526,5.48,1111122 
DISL,ioos:station:DISL:BSCA:1,2019-04-15T14:30:00Z,30.3288,-87.8293,1.56,6.52,1111122 
DISL,ioos:station:DISL:BSCA:1,2019-04-15T15:30:00Z,30.3288,-87.8293,1.621,6.45,1111122 
DISL,ioos:station:DISL:BSCA:1,2019-04-15T16:30:00Z,30.3288,-87.8293,1.668,6.37,1111122 
DISL,ioos:station:DISL:BSCA:1,2019-04-15T17:30:00Z,30.3288,-87.8293,1.726,6.05,1111122 
DISL,ioos:station:DISL:BSCA:1,2019-04-15T18:30:00Z,30.3288,-87.8293,1.774,6.22,1111122 
DISL,ioos:station:DISL:BSCA:1,2019-04-15T19:30:00Z,30.3288,-87.8293,1.766,5.55,1111122 
DISL,ioos:station:DISL:BSCA:1,2019-04-15T20:30:00Z,30.3288,-87.8293,1.745,6.53,1111122 
DISL,ioos:station:DISL:BSCA:1,2019-04-15T21:30:00Z,30.3288,-87.8293,1.755,5.23,1111122 
DISL,ioos:station:DISL:BSCA:1,2019-04-15T22:30:00Z,30.3288,-87.8293,1.778,6.49,1111122 
DISL,ioos:station:DISL:BSCA:1,2019-04-15T23:30:00Z,30.3288,-87.8293,1.8,5.64,1111122 
DISL,ioos:station:DISL:BSCA:1,2019-04-16T00:30:00Z,30.3288,-87.8293,1.793,5.35,1111122 
DISL,ioos:station:DISL:BSCA:1,2019-04-16T01:30:00Z,30.3288,-87.8293,1.802,5.45,1111122 
DISL,ioos:station:DISL:BSCA:1,2019-04-16T02:30:00Z,30.3288,-87.8293,1.779,5.6,1111122 
DISL,ioos:station:DISL:BSCA:1,2019-04-16T03:30:00Z,30.3288,-87.8293,1.777,6.83,1111122 
DISL,ioos:station:DISL:BSCA:1,2019-04-16T04:30:00Z,30.3288,-87.8293,1.728,6.71,1111122 
DISL,ioos:station:DISL:BSCA:1,2019-04-16T05:30:00Z,30.3288,-87.8293,1.667,5.42,1111122 
DISL,ioos:station:DISL:BSCA:1,2019-04-16T06:30:00Z,30.3288,-87.8293,1.602,7.56,1111122 
DISL,ioos:station:DISL:BSCA:1,2019-04-16T07:30:00Z,30.3288,-87.8293,1.537,7.8,1111122 
DISL,ioos:station:DISL:BSCA:1,2019-04-16T08:30:00Z,30.3288,-87.8293,1.489,7.69,1111122 
DISL,ioos:station:DISL:BSCA:1,2019-04-16T09:30:00Z,30.3288,-87.8293,1.446,7.68,1111122 
DISL,ioos:station:DISL:BSCA:1,2019-04-16T10:30:00Z,30.3288,-87.8293,1.414,7.15,1111122 
DISL,ioos:station:DISL:BSCA:1,2019-04-16T11:30:00Z,30.3288,-87.8293,1.4,4.78,1111122 
DISL,ioos:station:DISL:BSCA:1,2019-04-16T12:30:00Z,30.3288,-87.8293,1.404,2.81,1111122 
DISL,ioos:station:DISL:BSCA:1,2019-04-16T13:30:00Z,30.3288,-87.8293,1.431,2.07,1111122 
DISL,ioos:station:DISL:BSCA:1,2019-04-16T14:30:00Z,30.3288,-87.8293,1.49,3.35,1111122 
DISL,ioos:station:DISL:BSCA:1,2019-04-16T15:30:00Z,30.3288,-87.8293,1.571,2.77,1111122 
DISL,ioos:station:DISL:BSCA:1,2019-04-16T16:30:00Z,30.3288,-87.8293,1.585,5.37,1111122 
DISL,ioos:station:DISL:BSCA:1,2019-04-16T17:30:00Z,30.3288,-87.8293,1.61,5.67,1111122 
DISL,ioos:station:DISL:BSCA:1,2019-04-16T18:30:00Z,30.3288,-87.8293,1.618,5.28,1111122 
DISL,ioos:station:DISL:BSCA:1,2019-04-16T19:30:00Z,30.3288,-87.8293,1.637,5.9,11111222 
DISL,ioos:station:DISL:BSCA:1,2019-04-16T20:30:00Z,30.3288,-87.8293,1.63,5.83,11111222 
DISL,ioos:station:DISL:BSCA:1,2019-04-16T21:30:00Z,30.3288,-87.8293,1.64,8.0,11111222 
DISL,ioos:station:DISL:BSCA:1,2019-04-16T22:30:00Z,30.3288,-87.8293,1.672,7.0,11111222 
DISL,ioos:station:DISL:BSCA:1,2019-04-16T23:30:00Z,30.3288,-87.8293,1.68,6.76,11111222 
DISL,ioos:station:DISL:BSCA:1,2019-04-17T00:30:00Z,30.3288,-87.8293,1.695,6.63,11111222 
DISL,ioos:station:DISL:BSCA:1,2019-04-17T01:30:00Z,30.3288,-87.8293,1.709,7.09,11111222 
DISL,ioos:station:DISL:BSCA:1,2019-04-17T02:30:00Z,30.3288,-87.8293,1.744,5.96,11111222 
DISL,ioos:station:DISL:BSCA:1,2019-04-17T03:30:00Z,30.3288,-87.8293,1.787,6.67,11111222 
DISL,ioos:station:DISL:BSCA:1,2019-04-17T04:30:00Z,30.3288,-87.8293,1.806,6.1,11111222 
DISL,ioos:station:DISL:BSCA:1,2019-04-17T05:30:00Z,30.3288,-87.8293,1.78,7.59,11111222 
DISL,ioos:station:DISL:BSCA:1,2019-04-17T06:30:00Z,30.3288,-87.8293,1.737,6.32,11111222 
DISL,ioos:station:DISL:BSCA:1,2019-04-17T07:30:00Z,30.3288,-87.8293,1.684,7.59,11111222 
DISL,ioos:station:DISL:BSCA:1,2019-04-17T08:30:00Z,30.3288,-87.8293,1.63,7.34,11111222 
DISL,ioos:station:DISL:BSCA:1,2019-04-17T09:30:00Z,30.3288,-87.8293,1.586,6.9,11111222 
DISL,ioos:station:DISL:BSCA:1,2019-04-17T10:30:00Z,30.3288,-87.8293,1.568,6.08,11111222 
DISL,ioos:station:DISL:BSCA:1,2019-04-17T11:30:00Z,30.3288,-87.8293,1.561,3.75,11111222 
DISL,ioos:station:DISL:BSCA:1,2019-04-17T12:30:00Z,30.3288,-87.8293,1.556,5.02,11111222 
DISL,ioos:station:DISL:BSCA:1,2019-04-17T13:30:00Z,30.3288,-87.8293,1.552,2.8,11111222 
DISL,ioos:station:DISL:BSCA:1,2019-04-17T14:30:00Z,30.3288,-87.8293,1.587,3.0,11111222 
DISL,ioos:station:DISL:BSCA:1,2019-04-17T15:30:00Z,30.3288,-87.8293,1.629,6.01,11111222 
DISL,ioos:station:DISL:BSCA:1,2019-04-17T16:30:00Z,30.3288,-87.8293,1.678,4.55,11111222 
DISL,ioos:station:DISL:BSCA:1,2019-04-17T17:30:00Z,30.3288,-87.8293,1.684,3.18,11111222 
DISL,ioos:station:DISL:BSCA:1,2019-04-17T18:30:00Z,30.3288,-87.8293,1.665,3.22,11111222 
DISL,ioos:station:DISL:BSCA:1,2019-04-17T19:30:00Z,30.3288,-87.8293,1.638,4.64,11111222 
DISL,ioos:station:DISL:BSCA:1,2019-04-17T20:30:00Z,30.3288,-87.8293,1.615,4.81,11111222 
DISL,ioos:station:DISL:BSCA:1,2019-04-17T21:30:00Z,30.3288,-87.8293,1.593,6.49,11111222 
DISL,ioos:station:DISL:BSCA:1,2019-04-17T22:30:00Z,30.3288,-87.8293,1.586,7.49,11111222 
DISL,ioos:station:DISL:BSCA:1,2019-04-17T23:30:00Z,30.3288,-87.8293,1.586,7.48,11111222 
DISL,ioos:station:DISL:BSCA:1,2019-04-18T00:30:00Z,30.3288,-87.8293,1.619,6.02,11111222 
DISL,ioos:station:DISL:BSCA:1,2019-04-18T01:30:00Z,30.3288,-87.8293,1.662,3.2,11111222 
DISL,ioos:station:DISL:BSCA:1,2019-04-18T02:30:00Z,30.3288,-87.8293,1.694,3.3,11111222 
DISL,ioos:station:DISL:BSCA:1,2019-04-18T03:30:00Z,30.3288,-87.8293,1.729,6.6,11111222 
DISL,ioos:station:DISL:BSCA:1,2019-04-18T04:30:00Z,30.3288,-87.8293,1.755,6.95,11111222 
DISL,ioos:station:DISL:BSCA:1,2019-04-18T05:30:00Z,30.3288,-87.8293,1.772,7.06,11111222 
DISL,ioos:station:DISL:BSCA:1,2019-04-18T06:30:00Z,30.3288,-87.8293,1.786,7.23,11111222 
DISL,ioos:station:DISL:BSCA:1,2019-04-18T07:30:00Z,30.3288,-87.8293,1.79,6.94,11111222 
DISL,ioos:station:DISL:BSCA:1,2019-04-18T08:30:00Z,30.3288,-87.8293,1.792,7.11,11111222 
DISL,ioos:station:DISL:BSCA:1,2019-04-18T09:30:00Z,30.3288,-87.8293,1.792,7.42,11111222 
DISL,ioos:station:DISL:BSCA:1,2019-04-18T10:30:00Z,30.3288,-87.8293,1.795,7.34,11111222 
DISL,ioos:station:DISL:BSCA:1,2019-04-18T11:30:00Z,30.3288,-87.8293,1.844,7.41,11111222 
DISL,ioos:station:DISL:BSCA:1,2019-04-18T12:30:00Z,30.3288,-87.8293,1.949,6.6,11111222 
DISL,ioos:station:DISL:BSCA:1,2019-04-18T13:30:00Z,30.3288,-87.8293,2.014,5.65,11111222 
DISL,ioos:station:DISL:BSCA:1,2019-04-18T14:30:00Z,30.3288,-87.8293,1.964,6.26,11111222 
DISL,ioos:station:DISL:BSCA:1,2019-04-18T15:30:00Z,30.3288,-87.8293,1.892,6.27,11111222 
DISL,ioos:station:DISL:BSCA:1,2019-04-18T16:30:00Z,30.3288,-87.8293,1.845,5.32,11111222 
DISL,ioos:station:DISL:BSCA:1,2019-04-18T17:30:00Z,30.3288,-87.8293,1.819,6.54,11111222 
DISL,ioos:station:DISL:BSCA:1,2019-04-18T18:30:00Z,30.3288,-87.8293,1.784,7.12,11111222 
DISL,ioos:station:DISL:BSCA:1,2019-04-18T19:30:00Z,30.3288,-87.8293,1.69,7.1,11111222 
DISL,ioos:station:DISL:BSCA:1,2019-04-18T20:30:00Z,30.3288,-87.8293,1.616,7.43,11111222 
DISL,ioos:station:DISL:BSCA:1,2019-04-18T21:30:00Z,30.3288,-87.8293,1.597,7.65,11111222 
DISL,ioos:station:DISL:BSCA:1,2019-04-18T22:30:00Z,30.3288,-87.8293,1.608,7.48,11111222 
DISL,ioos:station:DISL:BSCA:1,2019-04-18T23:30:00Z,30.3288,-87.8293,1.675,7.13,11111222 
DISL,ioos:station:DISL:BSCA:1,2019-04-19T00:30:00Z,30.3288,-87.8293,1.763,6.9,11111222 
DISL,ioos:station:DISL:BSCA:1,2019-04-19T01:30:00Z,30.3288,-87.8293,1.911,7.52,11111222 
DISL,ioos:station:DISL:BSCA:1,2019-04-19T02:30:00Z,30.3288,-87.8293,1.701,7.15,11111222 
DISL,ioos:station:DISL:BSCA:1,2019-04-19T03:30:00Z,30.3288,-87.8293,2.047,6.9,11111222 
DISL,ioos:station:DISL:BSCA:1,2019-04-19T04:30:00Z,30.3288,-87.8293,2.347,6.37,11111222 
DISL,ioos:station:DISL:BSCA:1,2019-04-19T05:30:00Z,30.3288,-87.8293,2.272,6.35,11111222 
DISL,ioos:station:DISL:BSCA:1,2019-04-19T06:30:00Z,30.3288,-87.8293,2.13,5.91,11111222 
DISL,ioos:station:DISL:BSCA:1,2019-04-19T07:30:00Z,30.3288,-87.8293,2.12,5.56,11111222 
DISL,ioos:station:DISL:BSCA:1,2019-04-19T08:30:00Z,30.3288,-87.8293,2.152,5.98,11111222 
DISL,ioos:station:DISL:BSCA:1,2019-04-19T09:30:00Z,30.3288,-87.8293,2.054,6.19,11111222 
DISL,ioos:station:DISL:BSCA:1,2019-04-19T10:30:00Z,30.3288,-87.8293,1.914,5.95,11111222 
DISL,ioos:station:DISL:BSCA:1,2019-04-19T11:30:00Z,30.3288,-87.8293,1.878,5.9,11111222 
DISL,ioos:station:DISL:BSCA:1,2019-04-19T12:30:00Z,30.3288,-87.8293,1.924,5.79,11111222 
DISL,ioos:station:DISL:BSCA:1,2019-04-19T13:30:00Z,30.3288,-87.8293,2.127,6.54,11111222 
DISL,ioos:station:DISL:BSCA:1,2019-04-19T14:30:00Z,30.3288,-87.8293,2.147,6.53,11111222 
DISL,ioos:station:DISL:BSCA:1,2019-04-19T15:30:00Z,30.3288,-87.8293,2.011,6.53,11111222 
DISL,ioos:station:DISL:BSCA:1,2019-04-19T16:30:00Z,30.3288,-87.8293,1.954,6.77,11111222 
DISL,ioos:station:DISL:BSCA:1,2019-04-19T17:30:00Z,30.3288,-87.8293,1.915,6.22,11111222 
DISL,ioos:station:DISL:BSCA:1,2019-04-19T18:30:00Z,30.3288,-87.8293,1.979,6.56,11111222 
DISL,ioos:station:DISL:BSCA:1,2019-04-19T19:30:00Z,30.3288,-87.8293,1.923,6.49,11111222 
DISL,ioos:station:DISL:BSCA:1,2019-04-19T20:30:00Z,30.3288,-87.8293,1.816,6.82,11111222 
DISL,ioos:station:DISL:BSCA:1,2019-04-19T21:30:00Z,30.3288,-87.8293,1.732,6.12,11111222 
DISL,ioos:station:DISL:BSCA:1,2019-04-19T22:30:00Z,30.3288,-87.8293,1.732,7.09,11111222 
DISL,ioos:station:DISL:BSCA:1,2019-04-19T23:30:00Z,30.3288,-87.8293,1.827,6.65,11111222 
DISL,ioos:station:DISL:BSCA:1,2019-04-20T00:30:00Z,30.3288,-87.8293,1.634,6.81,11111222 
DISL,ioos:station:DISL:BSCA:1,2019-04-20T01:30:00Z,30.3288,-87.8293,1.513,7.07,11111222 
DISL,ioos:station:DISL:BSCA:1,2019-04-20T02:30:00Z,30.3288,-87.8293,1.536,7.11,11111222 
DISL,ioos:station:DISL:BSCA:1,2019-04-20T03:30:00Z,30.3288,-87.8293,1.605,7.79,11111222 
DISL,ioos:station:DISL:BSCA:1,2019-04-20T04:30:00Z,30.3288,-87.8293,1.644,7.19,11111222 
DISL,ioos:station:DISL:BSCA:1,2019-04-20T05:30:00Z,30.3288,-87.8293,1.606,7.22,11111222 
DISL,ioos:station:DISL:BSCA:1,2019-04-20T06:30:00Z,30.3288,-87.8293,1.606,7.43,11111222 
DISL,ioos:station:DISL:BSCA:1,2019-04-20T07:30:00Z,30.3288,-87.8293,1.628,7.45,11111222 
DISL,ioos:station:DISL:BSCA:1,2019-04-20T08:30:00Z,30.3288,-87.8293,1.652,7.23,11111222 
DISL,ioos:station:DISL:BSCA:1,2019-04-20T09:30:00Z,30.3288,-87.8293,1.713,7.35,11111222 
DISL,ioos:station:DISL:BSCA:1,2019-04-20T10:30:00Z,30.3288,-87.8293,1.742,7.29,11111222 
DISL,ioos:station:DISL:BSCA:1,2019-04-20T11:30:00Z,30.3288,-87.8293,1.788,7.39,11111222 
DISL,ioos:station:DISL:BSCA:1,2019-04-20T12:30:00Z,30.3288,-87.8293,1.862,7.57,11111222 
DISL,ioos:station:DISL:BSCA:1,2019-04-20T13:30:00Z,30.3288,-87.8293,1.919,7.31,11111222 
DISL,ioos:station:DISL:BSCA:1,2019-04-20T14:30:00Z,30.3288,-87.8293,1.969,7.27,11111222 
DISL,ioos:station:DISL:BSCA:1,2019-04-20T15:30:00Z,30.3288,-87.8293,1.905,7.46,11111222 
DISL,ioos:station:DISL:BSCA:1,2019-04-20T16:30:00Z,30.3288,-87.8293,1.828,7.15,11111222 
DISL,ioos:station:DISL:BSCA:1,2019-04-20T17:30:00Z,30.3288,-87.8293,1.83,7.16,11111222 
DISL,ioos:station:DISL:BSCA:1,2019-04-20T18:30:00Z,30.3288,-87.8293,1.799,7.5,11111222 
DISL,ioos:station:DISL:BSCA:1,2019-04-20T19:30:00Z,30.3288,-87.8293,1.73,7.57,11111222 
DISL,ioos:station:DISL:BSCA:1,2019-04-20T20:30:00Z,30.3288,-87.8293,1.701,7.51,11111222 
DISL,ioos:station:DISL:BSCA:1,2019-04-20T21:30:00Z,30.3288,-87.8293,1.617,7.56,11111222 
DISL,ioos:station:DISL:BSCA:1,2019-04-20T22:30:00Z,30.3288,-87.8293,1.574,7.44,11111222 
DISL,ioos:station:DISL:BSCA:1,2019-04-20T23:30:00Z,30.3288,-87.8293,1.506,7.34,11111222 
DISL,ioos:station:DISL:BSCA:1,2019-04-21T00:30:00Z,30.3288,-87.8293,1.448,6.21,11111222 
DISL,ioos:station:DISL:BSCA:1,2019-04-21T01:30:00Z,30.3288,-87.8293,1.38,5.74,11111222 
DISL,ioos:station:DISL:BSCA:1,2019-04-21T02:30:00Z,30.3288,-87.8293,1.333,5.72,11111222 
DISL,ioos:station:DISL:BSCA:1,2019-04-21T03:30:00Z,30.3288,-87.8293,1.311,5.73,11111222 
DISL,ioos:station:DISL:BSCA:1,2019-04-21T04:30:00Z,30.3288,-87.8293,1.312,5.9,11111222 
DISL,ioos:station:DISL:BSCA:1,2019-04-21T05:30:00Z,30.3288,-87.8293,1.318,6.51,11111222 
DISL,ioos:station:DISL:BSCA:1,2019-04-21T06:30:00Z,30.3288,-87.8293,1.326,6.95,11111222 
DISL,ioos:station:DISL:BSCA:1,2019-04-21T07:30:00Z,30.3288,-87.8293,1.364,7.21,11111222 
DISL,ioos:station:DISL:BSCA:1,2019-04-21T08:30:00Z,30.3288,-87.8293,1.415,7.06,11111222 
DISL,ioos:station:DISL:BSCA:1,2019-04-21T09:30:00Z,30.3288,-87.8293,1.451,7.15,11111222 
DISL,ioos:station:DISL:BSCA:1,2019-04-21T10:30:00Z,30.3288,-87.8293,1.501,6.94,11111222 
DISL,ioos:station:DISL:BSCA:1,2019-04-21T11:30:00Z,30.3288,-87.8293,1.552,5.03,11111222 
DISL,ioos:station:DISL:BSCA:1,2019-04-21T12:30:00Z,30.3288,-87.8293,1.611,3.64,11111222 
DISL,ioos:station:DISL:BSCA:1,2019-04-21T13:30:00Z,30.3288,-87.8293,1.655,5.13,11111222 
DISL,ioos:station:DISL:BSCA:1,2019-04-21T14:30:00Z,30.3288,-87.8293,1.742,4.56,11111222 
DISL,ioos:station:DISL:BSCA:1,2019-04-21T15:30:00Z,30.3288,-87.8293,1.816,5.09,11111222 
DISL,ioos:station:DISL:BSCA:1,2019-04-21T16:30:00Z,30.3288,-87.8293,1.84,4.5,11111222 
DISL,ioos:station:DISL:BSCA:1,2019-04-21T17:30:00Z,30.3288,-87.8293,1.839,4.26,11111222 
DISL,ioos:station:DISL:BSCA:1,2019-04-21T18:30:00Z,30.3288,-87.8293,1.809,3.91,11111222 
DISL,ioos:station:DISL:BSCA:1,2019-04-21T19:30:00Z,30.3288,-87.8293,1.762,4.52,11111222 
DISL,ioos:station:DISL:BSCA:1,2019-04-21T20:30:00Z,30.3288,-87.8293,1.704,4.54,11111222 
DISL,ioos:station:DISL:BSCA:1,2019-04-21T21:30:00Z,30.3288,-87.8293,1.641,5.32,11111222 
DISL,ioos:station:DISL:BSCA:1,2019-04-21T22:30:00Z,30.3288,-87.8293,1.571,5.14,11111222 
DISL,ioos:station:DISL:BSCA:1,2019-04-21T23:30:00Z,30.3288,-87.8293,1.505,4.96,11111222 
DISL,ioos:station:DISL:BSCA:1,2019-04-22T00:30:00Z,30.3288,-87.8293,1.434,4.98,11111222 
DISL,ioos:station:DISL:BSCA:1,2019-04-22T01:30:00Z,30.3288,-87.8293,1.391,4.83,11111222 